Location: ActonStarParty
(42.4766°N, 71.4538°W)
Time: 08:21:05
(UTC-05:00)

ATLAS 5 CENTAUR R/B - Visible Passes

Search period start: 24 January 2017 00:00
Search period end: 03 February 2017 00:00
Orbit: 236 x 14673 km, 60.8° (Epoch: 07 August)

Date Brightness Start Highest point End Pass type
(mag) Time Alt. Az. Time Alt. Az. Time Alt. Az.
24 Jan 8.0 05:22:03 10° ESE 05:42:12 28° ENE 06:41:34 10° NNE visible
24 Jan 7.9 14:42:48 10° NW 16:38:58 87° ENE 17:47:28 10° SSE visible
24 Jan 8.6 19:51:11 10° NNW 21:02:23 28° WNW 22:00:20 10° WSW visible
25 Jan 8.8 04:06:34 10° NE 04:12:25 10° NE 04:19:07 10° NE visible
25 Jan 8.2 17:53:50 10° NW 19:32:12 48° W 20:33:12 10° SSW visible
26 Jan 7.3 06:24:49 10° SSE 06:43:46 50° E 08:10:29 10° NE visible
26 Jan 8.0 15:59:16 10° NW 17:53:29 73° W 18:55:14 10° S visible
26 Jan 9.2 21:19:51 10° NW 21:55:47 14° NW 22:31:07 10° WNW visible
27 Jan 8.0 04:48:45 10° ESE 05:08:42 25° ENE 06:01:18 10° NNE visible
27 Jan 8.6 19:12:46 10° NNW 20:29:15 31° WNW 21:29:00 10° WSW visible
28 Jan 8.2 17:16:05 10° NW 18:57:46 53° W 19:59:05 10° SSW visible
29 Jan 7.3 05:50:03 10° SSE 06:09:01 45° E 07:29:40 10° NE visible
29 Jan 8.0 15:21:40 10° NW 17:16:49 77° WSW 18:19:52 10° S visible
29 Jan 9.2 20:37:28 10° NNW 21:22:52 17° NW 22:06:30 10° WNW visible
30 Jan 8.0 04:15:26 10° ESE 04:34:51 21° ENE 05:20:05 10° NNE visible
30 Jan 8.5 18:33:56 10° NNW 19:55:28 35° WNW 20:56:32 10° WSW visible
31 Jan 8.2 16:37:48 10° NW 18:22:32 57° W 19:24:12 10° SSW visible
01 Feb 7.3 05:14:54 10° SSE 05:33:57 40° E 06:48:15 10° NE visible
01 Feb 8.0 14:43:30 10° NW 16:39:04 82° WSW 17:43:47 10° S visible
01 Feb 9.1 19:55:52 10° NNW 20:49:22 20° NW 21:39:15 10° W visible
02 Feb 8.1 03:42:22 10° E 04:00:41 18° ENE 04:37:40 10° NNE visible
02 Feb 8.5 17:54:42 10° NW 19:21:01 38° WNW 20:23:01 10° SW visible
